QTR1191 OEJN-OTHH

Flight info

Callsign QTR1191
Flight time 1h 41m
Altitude 39000
Route EGREP B417 PATOR T532 DAW J852 KSA H744 KINIB Z511 GISRA L681 ORLEK
Aircraft A35K/H-SDE2E3GHIJ1J3J4J5LM1ORWXY/LB1D1

Departure

Time 2026-05-04 09:17
Airport King Abdulaziz International Airport (OEJN)

Arrival

Time 2026-05-04 10:59
Airport Hamad International Airport (OTHH)
Time Latitude Longitude Altitude Speed Heading
2026-05-04 08:43 21.69844 39.14424 28 ft 0 kts 251°
2026-05-04 09:07 21.69908 39.14510 26 ft 0 kts 158°
2026-05-04 09:08 21.69907 39.14510 25 ft 1 kts 158°
2026-05-04 09:08 21.69906 39.14511 25 ft 0 kts 158°
2026-05-04 09:09 21.69905 39.14511 28 ft 1 kts 158°
2026-05-04 09:09 21.69886 39.14519 28 ft 5 kts 159°
2026-05-04 09:09 21.69839 39.14538 28 ft 9 kts 159°
2026-05-04 09:09 21.69768 39.14566 28 ft 13 kts 159°
2026-05-04 09:10 21.69673 39.14604 28 ft 16 kts 160°
2026-05-04 09:10 21.69555 39.14650 28 ft 20 kts 160°
2026-05-04 09:10 21.69417 39.14704 28 ft 23 kts 160°
2026-05-04 09:10 21.69261 39.14766 28 ft 25 kts 160°
2026-05-04 09:11 21.69087 39.14835 29 ft 28 kts 160°
2026-05-04 09:11 21.68901 39.14908 30 ft 27 kts 159°
2026-05-04 09:11 21.68745 39.14969 30 ft 20 kts 159°
2026-05-04 09:11 21.68670 39.15036 31 ft 14 kts 99°
2026-05-04 09:12 21.68700 39.15144 31 ft 17 kts 68°
2026-05-04 09:12 21.68701 39.15254 30 ft 14 kts 135°
2026-05-04 09:14 21.67673 39.15666 36 ft 26 kts 160°
2026-05-04 09:14 21.67493 39.15736 36 ft 29 kts 160°
2026-05-04 09:14 21.67309 39.15808 37 ft 27 kts 159°
2026-05-04 09:14 21.67125 39.15882 37 ft 28 kts 160°
2026-05-04 09:15 21.66936 39.15956 38 ft 29 kts 160°
2026-05-04 09:15 21.66758 39.16027 39 ft 26 kts 159°
2026-05-04 09:15 21.66589 39.16094 40 ft 26 kts 160°
2026-05-04 09:15 21.66412 39.16162 40 ft 27 kts 160°
2026-05-04 09:17 21.68614 39.15503 786 ft 170 kts 339°
2026-05-04 09:18 21.69706 39.15075 1709 ft 169 kts 338°
2026-05-04 09:18 21.70874 39.14604 2145 ft 191 kts 338°
2026-05-04 09:18 21.72208 39.14074 2498 ft 219 kts 338°
2026-05-04 09:18 21.73737 39.13470 2913 ft 246 kts 339°
2026-05-04 09:19 21.75373 39.12830 3737 ft 253 kts 339°
2026-05-04 09:19 21.77037 39.12176 4643 ft 259 kts 340°
2026-05-04 09:19 21.78776 39.11490 5326 ft 271 kts 341°
2026-05-04 09:19 21.80562 39.10786 6170 ft 275 kts 341°
2026-05-04 09:20 21.82370 39.10071 6993 ft 279 kts 342°
2026-05-04 09:20 21.84195 39.09350 7884 ft 281 kts 341°
2026-05-04 09:20 21.86037 39.08623 8754 ft 284 kts 341°
2026-05-04 09:20 21.87906 39.07886 9688 ft 288 kts 340°
2026-05-04 09:21 21.89826 39.07128 10371 ft 303 kts 340°
2026-05-04 09:21 21.91854 39.06245 10742 ft 327 kts 335°
2026-05-04 09:21 21.93988 39.05196 11152 ft 346 kts 334°
2026-05-04 09:21 21.96221 39.04097 11764 ft 358 kts 334°
2026-05-04 09:22 21.98515 39.02984 12541 ft 365 kts 334°
2026-05-04 09:22 22.00853 39.01858 13348 ft 371 kts 334°
2026-05-04 09:22 22.03228 39.00716 14087 ft 377 kts 334°
2026-05-04 09:22 22.05637 38.99561 14902 ft 379 kts 334°
2026-05-04 09:23 22.08017 38.98421 15769 ft 380 kts 333°
2026-05-04 09:23 22.10437 38.97264 16631 ft 381 kts 333°
2026-05-04 09:23 22.12949 38.96299 17456 ft 387 kts 343°
2026-05-04 09:23 22.15656 38.96070 18273 ft 397 kts
2026-05-04 09:25 22.30574 39.10342 23242 ft 444 kts 68°
2026-05-04 09:25 22.31445 39.13563 23869 ft 450 kts 75°
2026-05-04 09:26 22.32159 39.16872 24428 ft 456 kts 76°
2026-05-04 09:26 22.32870 39.20233 24953 ft 462 kts 76°
2026-05-04 09:26 22.33598 39.23641 25484 ft 468 kts 76°
2026-05-04 09:26 22.34341 39.27094 26035 ft 474 kts 76°
2026-05-04 09:27 22.35095 39.30585 26569 ft 480 kts 77°
2026-05-04 09:27 22.35860 39.34119 27109 ft 486 kts 77°
2026-05-04 09:27 22.36636 39.37705 27646 ft 492 kts 77°
2026-05-04 09:27 22.37417 39.41315 28186 ft 497 kts 77°
2026-05-04 09:28 22.38210 39.44983 28721 ft 503 kts 77°
2026-05-04 09:28 22.39009 39.48686 29170 ft 510 kts 77°
2026-05-04 09:28 22.39820 39.52441 29667 ft 516 kts 77°
2026-05-04 09:28 22.40632 39.56190 30139 ft 521 kts 77°
2026-05-04 09:29 22.41459 39.60020 30578 ft 525 kts 77°
2026-05-04 09:29 22.42292 39.63881 31042 ft 529 kts 77°
2026-05-04 09:29 22.43128 39.67763 31523 ft 532 kts 77°
2026-05-04 09:29 22.43970 39.71676 31987 ft 535 kts 77°
2026-05-04 09:30 22.44813 39.75602 32408 ft 539 kts 77°
2026-05-04 09:30 22.45854 39.79508 32816 ft 543 kts 69°
2026-05-04 09:30 22.47494 39.83184 33196 ft 543 kts 56°
2026-05-04 09:30 22.49754 39.86440 33575 ft 541 kts 44°
2026-05-04 09:31 22.52435 39.89291 33968 ft 542 kts 39°
2026-05-04 09:31 22.55238 39.92032 34301 ft 544 kts 38°
2026-05-04 09:31 22.58100 39.94733 34632 ft 547 kts 37°
2026-05-04 09:31 22.60975 39.97417 35043 ft 547 kts 37°
2026-05-04 09:32 22.63854 40.00115 35518 ft 546 kts 37°
2026-05-04 09:32 22.66716 40.02815 35945 ft 546 kts 38°
2026-05-04 09:34 22.86587 40.21847 38700 ft 545 kts 39°
2026-05-04 09:34 22.89419 40.24588 38992 ft 546 kts 40°
2026-05-04 09:34 22.94220 40.30978 39095 ft 548 kts 57°
2026-05-04 09:35 22.98070 40.38119 39097 ft 548 kts 61°
2026-05-04 09:35 23.01695 40.45407 39085 ft 549 kts 62°
2026-05-04 09:37 23.16349 40.74468 39079 ft 549 kts 61°
2026-05-04 09:38 23.20027 40.81744 39077 ft 549 kts 61°
2026-05-04 09:38 23.23678 40.88977 39081 ft 550 kts 61°
2026-05-04 09:39 23.27364 40.96292 39074 ft 551 kts 61°
2026-05-04 09:39 23.31039 41.03596 39077 ft 550 kts 61°
2026-05-04 09:40 23.34705 41.10895 39077 ft 549 kts 61°
2026-05-04 09:40 23.38366 41.18193 39081 ft 549 kts 61°
2026-05-04 09:42 23.52959 41.47393 39075 ft 549 kts 62°
2026-05-04 09:43 23.56610 41.54726 39066 ft 551 kts 62°
2026-05-04 09:43 23.60261 41.62069 39057 ft 550 kts 62°
2026-05-04 09:44 23.63903 41.69407 39060 ft 549 kts 62°
2026-05-04 09:46 23.74913 42.00389 39044 ft 549 kts 72°
2026-05-04 09:46 23.77539 42.08216 39053 ft 548 kts 70°
2026-05-04 09:47 23.80239 42.15995 39047 ft 547 kts 70°
2026-05-04 09:49 23.90400 42.45784 39050 ft 546 kts 70°
2026-05-04 09:51 23.99599 42.73033 39044 ft 545 kts 71°
2026-05-04 09:51 24.02198 42.80765 39046 ft 545 kts 71°
2026-05-04 09:52 24.04816 42.88566 39040 ft 546 kts 71°
2026-05-04 09:52 24.07417 42.96398 39039 ft 547 kts 71°
2026-05-04 09:53 24.09989 43.04240 39034 ft 546 kts 71°
2026-05-04 09:53 24.12554 43.12069 39052 ft 546 kts 71°
2026-05-04 09:54 24.15104 43.19854 39035 ft 547 kts 71°
2026-05-04 09:54 24.17675 43.27709 39030 ft 548 kts 71°
2026-05-04 09:55 24.20238 43.35558 39034 ft 547 kts 71°
2026-05-04 09:55 24.22798 43.43409 39011 ft 547 kts 71°
2026-05-04 09:56 24.25355 43.51273 39029 ft 547 kts 71°
2026-05-04 09:56 24.27909 43.59139 39023 ft 548 kts 71°
2026-05-04 09:57 24.30459 43.67009 39020 ft 547 kts 71°
2026-05-04 09:57 24.32985 43.74822 39020 ft 547 kts 71°
2026-05-04 09:58 24.35520 43.82680 39014 ft 547 kts 71°
2026-05-04 09:58 24.38057 43.90558 39016 ft 547 kts 71°
2026-05-04 10:00 24.46788 44.22437 39020 ft 545 kts 81°
2026-05-04 10:04 24.56602 44.79686 38984 ft 545 kts 81°
2026-05-04 10:04 24.57995 44.87886 38982 ft 545 kts 81°
2026-05-04 10:05 24.59381 44.96077 38993 ft 545 kts 81°
2026-05-04 10:05 24.60768 45.04275 38981 ft 546 kts 81°
2026-05-04 10:06 24.62142 45.12469 38982 ft 545 kts 81°
2026-05-04 10:06 24.63504 45.20620 38977 ft 545 kts 81°
2026-05-04 10:08 24.68267 45.49295 38972 ft 545 kts 82°
2026-05-04 10:08 24.69619 45.57494 38968 ft 545 kts 82°
2026-05-04 10:09 24.70974 45.65694 38965 ft 545 kts 81°
2026-05-04 10:09 24.72939 45.73765 38966 ft 546 kts 75°
2026-05-04 10:10 24.75094 45.81724 38967 ft 546 kts 74°
2026-05-04 10:10 24.77293 45.89732 38963 ft 547 kts 74°
2026-05-04 10:11 24.79479 45.97742 38966 ft 546 kts 75°
2026-05-04 10:11 24.81654 46.05760 38966 ft 546 kts 75°
2026-05-04 10:12 24.83822 46.13786 38968 ft 546 kts 75°
2026-05-04 10:12 24.85983 46.21808 38966 ft 546 kts 75°
2026-05-04 10:13 24.88138 46.29820 38964 ft 545 kts 75°
2026-05-04 10:13 24.90288 46.37831 38965 ft 545 kts 75°
2026-05-04 10:14 24.92424 46.45808 38965 ft 546 kts 75°
2026-05-04 10:16 25.02390 46.77403 38966 ft 547 kts 65°
2026-05-04 10:16 25.05588 46.85018 38959 ft 547 kts 65°
2026-05-04 10:17 25.08763 46.92587 38949 ft 547 kts 65°
2026-05-04 10:19 25.21427 47.23116 38931 ft 546 kts 65°
2026-05-04 10:19 25.24580 47.30755 38926 ft 546 kts 65°
2026-05-04 10:20 25.27728 47.38393 38923 ft 546 kts 65°
2026-05-04 10:20 25.30872 47.46038 38924 ft 546 kts 65°
2026-05-04 10:21 25.33993 47.53639 38919 ft 546 kts 65°
2026-05-04 10:21 25.37130 47.61295 38922 ft 546 kts 65°
2026-05-04 10:22 25.41829 47.72788 38905 ft 547 kts 65°
2026-05-04 10:23 25.44955 47.80462 38903 ft 547 kts 65°
2026-05-04 10:25 25.57413 48.11148 38885 ft 547 kts 65°
2026-05-04 10:25 25.60523 48.18842 38881 ft 547 kts 65°
2026-05-04 10:26 25.63628 48.26536 38871 ft 547 kts 65°
2026-05-04 10:26 25.66688 48.34261 38861 ft 547 kts 69°
2026-05-04 10:26 25.67757 48.38302 38866 ft 546 kts 80°
2026-05-04 10:27 25.68182 48.42471 38867 ft 542 kts 92°
2026-05-04 10:27 25.67920 48.50816 38863 ft 541 kts 96°
2026-05-04 10:28 25.67350 48.59133 38857 ft 541 kts 97°
2026-05-04 10:28 25.66761 48.67389 38840 ft 541 kts 97°
2026-05-04 10:29 25.66200 48.75704 38849 ft 541 kts 97°
2026-05-04 10:29 25.65654 48.84025 38846 ft 540 kts 97°
2026-05-04 10:30 25.65108 48.92326 38843 ft 540 kts 97°
2026-05-04 10:30 25.64556 49.00632 38843 ft 540 kts 97°
2026-05-04 10:31 25.63998 49.08946 38861 ft 540 kts 97°
2026-05-04 10:32 25.62022 49.37875 38790 ft 536 kts 97°
2026-05-04 10:33 25.61736 49.41991 38208 ft 536 kts 97°
2026-05-04 10:33 25.61447 49.46103 37502 ft 535 kts 97°
2026-05-04 10:33 25.61157 49.50213 36862 ft 535 kts 97°
2026-05-04 10:33 25.60866 49.54324 36209 ft 534 kts 96°
2026-05-04 10:34 25.60576 49.58418 35536 ft 534 kts 96°
2026-05-04 10:34 25.60284 49.62527 34867 ft 535 kts 96°
2026-05-04 10:34 25.59991 49.66631 34287 ft 533 kts 96°
2026-05-04 10:34 25.59798 49.69337 33931 ft 531 kts 96°
2026-05-04 10:35 25.59506 49.73405 33345 ft 528 kts 96°
2026-05-04 10:35 25.59215 49.77445 32802 ft 524 kts 96°
2026-05-04 10:35 25.58926 49.81445 32272 ft 520 kts 96°
2026-05-04 10:35 25.58636 49.85429 31733 ft 516 kts 96°
2026-05-04 10:36 25.58348 49.89379 31214 ft 512 kts 96°
2026-05-04 10:36 25.58061 49.93296 30693 ft 509 kts 96°
2026-05-04 10:36 25.57775 49.97189 30187 ft 506 kts 96°
2026-05-04 10:36 25.57489 50.01060 29620 ft 503 kts 96°
2026-05-04 10:37 25.57205 50.04901 29098 ft 498 kts 96°
2026-05-04 10:37 25.56922 50.08709 28588 ft 493 kts 96°
2026-05-04 10:37 25.56641 50.12479 28090 ft 488 kts 96°
2026-05-04 10:37 25.56336 50.16212 27573 ft 482 kts 99°
2026-05-04 10:39 25.50553 50.36675 24698 ft 452 kts 110°
2026-05-04 10:39 25.49556 50.39957 24214 ft 448 kts 110°
2026-05-04 10:39 25.48566 50.43214 23749 ft 444 kts 110°
2026-05-04 10:40 25.47583 50.46444 23240 ft 441 kts 110°
2026-05-04 10:40 25.46609 50.49641 22715 ft 436 kts 110°
2026-05-04 10:40 25.45647 50.52796 22207 ft 430 kts 110°
2026-05-04 10:40 25.44696 50.55912 21745 ft 424 kts 110°
2026-05-04 10:41 25.43757 50.58985 21273 ft 419 kts 110°
2026-05-04 10:41 25.42830 50.62018 20917 ft 414 kts 110°
2026-05-04 10:41 25.41854 50.65015 20376 ft 414 kts 113°
2026-05-04 10:41 25.40790 50.67967 19786 ft 412 kts 114°
2026-05-04 10:42 25.39727 50.70900 19256 ft 409 kts 113°
2026-05-04 10:42 25.38678 50.73817 18746 ft 406 kts 113°
2026-05-04 10:42 25.37645 50.76706 18241 ft 403 kts 113°
2026-05-04 10:42 25.36622 50.79577 17690 ft 399 kts 113°
2026-05-04 10:43 25.35613 50.82413 17165 ft 394 kts 112°
2026-05-04 10:44 25.28795 51.01573 13820 ft 375 kts 111°
2026-05-04 10:45 25.27844 51.04241 13335 ft 373 kts 111°
2026-05-04 10:45 25.27023 51.06946 12851 ft 370 kts 101°
2026-05-04 10:45 25.26810 51.09760 12393 ft 366 kts 89°
2026-05-04 10:45 25.26837 51.12566 11934 ft 364 kts 88°
2026-05-04 10:46 25.26889 51.15351 11479 ft 362 kts 88°
2026-05-04 10:46 25.26933 51.18126 11027 ft 359 kts 88°
2026-05-04 10:46 25.26972 51.20877 10671 ft 357 kts 88°
2026-05-04 10:46 25.27005 51.23586 10477 ft 346 kts 88°
2026-05-04 10:47 25.26863 51.26187 10268 ft 334 kts 99°
2026-05-04 10:47 25.26405 51.28597 10024 ft 325 kts 102°
2026-05-04 10:47 25.25882 51.31009 9652 ft 320 kts 102°
2026-05-04 10:47 25.25374 51.33340 9416 ft 312 kts 102°
2026-05-04 10:49 25.20734 51.48916 8205 ft 302 kts 149°
2026-05-04 10:49 25.18886 51.49895 8051 ft 289 kts 159°
2026-05-04 10:50 25.17051 51.50680 7894 ft 278 kts 160°
2026-05-04 10:51 25.05709 51.55614 6116 ft 230 kts 158°
2026-05-04 10:52 25.04258 51.56317 5804 ft 226 kts 148°
2026-05-04 10:52 25.03227 51.57557 5531 ft 217 kts 111°
2026-05-04 10:52 25.02997 51.59128 5253 ft 204 kts 76°
2026-05-04 10:54 25.07829 51.67021 3544 ft 179 kts 13°
2026-05-04 10:54 25.09035 51.67367 3279 ft 179 kts
2026-05-04 10:56 25.16673 51.64455 1812 ft 158 kts 338°
2026-05-04 10:56 25.17694 51.64003 1629 ft 158 kts 338°
2026-05-04 10:56 25.18698 51.63561 1406 ft 150 kts 338°
2026-05-04 10:57 25.19625 51.63151 1238 ft 137 kts 338°
2026-05-04 10:57 25.20496 51.62766 1066 ft 134 kts 337°
2026-05-04 10:57 25.21361 51.62385 916 ft 133 kts 336°
2026-05-04 10:57 25.22218 51.62001 745 ft 131 kts 338°
2026-05-04 10:58 25.23060 51.61620 588 ft 130 kts 341°
2026-05-04 10:58 25.23903 51.61246 415 ft 131 kts 342°
2026-05-04 10:58 25.24752 51.60878 240 ft 131 kts 343°
2026-05-04 10:58 25.25609 51.60506 63 ft 134 kts 342°
2026-05-04 10:59 25.26421 51.60154 33 ft 109 kts 338°
2026-05-04 10:59 25.27023 51.59889 31 ft 64 kts 338°
2026-05-04 10:59 25.27262 51.59821 32 ft 27 kts 359°
2026-05-04 10:59 25.27388 51.59831 33 ft 12 kts 11°
2026-05-04 11:00 25.27418 51.59892 34 ft 9 kts 118°
2026-05-04 11:01 25.26485 51.60329 35 ft 29 kts 159°
2026-05-04 11:02 25.26311 51.60406 35 ft 22 kts 158°
2026-05-04 11:02 25.26159 51.60472 35 ft 24 kts 158°
2026-05-04 11:05 25.26093 51.60976 36 ft 0 kts 157°